,,,PA_Meas_PMT16A,,PR_Meas_QMR101_102,,RH_Meas_QMH101,,SR_Meas_QMS101,,TA_Meas_QMH101,,GenWind,,GenWind,
date,time,status,PA,status,PR,status,RH,status,SR,status,TA,status,DirAvg,status,SpdAvg,
2010-12-29, 00:00:04,VALID,999.03,VALID,0,VALID,90.8001,VALID,0,VALID,23.4298,VALID,98,VALID,0.623438,
2010-12-29, 00:01:04,VALID,999.041,VALID,0,VALID,90.8535,VALID,0,VALID,23.4085,VALID,98,VALID,0.65,
2010-12-29, 00:02:04,VALID,999.028,VALID,0,VALID,90.968,VALID,0,VALID,23.428,VALID,98,VALID,0.619922,
2010-12-29, 00:03:04,VALID,999.034,VALID,0,VALID,90.9832,VALID,0,VALID,23.4493,VALID,66,VALID,0.691016,
2010-12-29, 00:04:04,VALID,999.044,VALID,0,VALID,90.968,VALID,0,VALID,23.428,VALID,66,VALID,0.653906,
2010-12-29, 00:05:04,VALID,999.025,VALID,0,VALID,90.9527,VALID,0,VALID,23.4493,VALID,66,VALID,0.521875,
2010-12-29, 00:06:04,VALID,998.973,VALID,0,VALID,90.9069,VALID,0,VALID,23.428,VALID,66,VALID,0.389453,
2010-12-29, 00:07:04,VALID,998.936,VALID,0,VALID,90.9069,VALID,0,VALID,23.4085,VALID,66,VALID,0.426562,
2010-12-29, 00:08:04,VALID,998.938,VALID,0,VALID,90.9451,VALID,0,VALID,23.428,VALID,66,VALID,0.176563,
2010-12-29, 00:09:04,VALID,998.938,VALID,0,VALID,90.9222,VALID,0,VALID,23.389,VALID,66,VALID,0,
2010-12-29, 00:10:04,VALID,998.934,VALID,0,VALID,90.8611,VALID,0,VALID,23.3695,VALID,66,VALID,0,
2010-12-29, 00:11:04,VALID,998.901,VALID,0,VALID,90.8154,VALID,0,VALID,23.3482,VALID,66,VALID,0,
2010-12-29, 00:12:04,VALID,998.902,VALID,0,VALID,90.8001,VALID,0,VALID,23.3287,VALID,66,VALID,0,
2010-12-29, 00:13:04,VALID,998.85,VALID,0,VALID,90.823,VALID,0,VALID,23.311,VALID,66,VALID,0,
2010-12-29, 00:14:04,VALID,998.824,VALID,0,VALID,90.8764,VALID,0,VALID,23.2915,VALID,66,VALID,0,
2010-12-29, 00:15:04,VALID,998.822,VALID,0,VALID,90.9756,VALID,0,VALID,23.311,VALID,66,VALID,0,
2010-12-29, 00:16:04,VALID,998.783,VALID,0,VALID,91.1053,VALID,0,VALID,23.2897,VALID,66,VALID,0,
2010-12-29, 00:17:04,VALID,998.763,VALID,0,VALID,91.1816,VALID,0,VALID,23.2702,VALID,66,VALID,0.163281,
2010-12-29, 00:18:04,VALID,998.704,VALID,0,VALID,91.2197,VALID,0.112286,VALID,23.2507,VALID,66,VALID,0.121875,
2010-12-29, 00:19:04,VALID,998.695,VALID,0,VALID,91.2503,VALID,0,VALID,23.2117,VALID,66,VALID,0.205469,
2010-12-29, 00:20:04,VALID,998.701,VALID,0,VALID,91.296,VALID,0,VALID,23.1921,VALID,66,VALID,0.142969,
2010-12-29, 00:21:04,VALID,998.642,VALID,0,VALID,91.3266,VALID,0,VALID,23.1531,VALID,66,VALID,0,
2010-12-29, 00:22:04,VALID,998.637,VALID,0,VALID,91.4334,VALID,0,VALID,23.1354,VALID,66,VALID,0,
2010-12-29, 00:23:04,VALID,998.627,VALID,0,VALID,91.5173,VALID,0.112286,VALID,23.1141,VALID,66,VALID,0,
2010-12-29, 00:24:04,VALID,998.635,VALID,0,VALID,91.6241,VALID,0,VALID,23.0946,VALID,66,VALID,0,
2010-12-29, 00:25:04,VALID,998.615,VALID,0,VALID,91.6699,VALID,0,VALID,23.0964,VALID,66,VALID,0,
2010-12-29, 00:26:04,VALID,998.616,VALID,0,VALID,91.7462,VALID,0.112286,VALID,23.0751,VALID,66,VALID,0,
2010-12-29, 00:27:04,VALID,998.612,VALID,0,VALID,91.8225,VALID,0,VALID,23.0769,VALID,66,VALID,0.262109,
2010-12-29, 00:28:04,VALID,998.593,VALID,0,VALID,91.9064,VALID,0.112286,VALID,23.0556,VALID,66,VALID,0.186328,
2010-12-29, 00:29:04,VALID,998.65,VALID,0,VALID,91.9827,VALID,0,VALID,23.0769,VALID,103,VALID,0.724609,
2010-12-29, 00:30:04,VALID,998.652,VALID,0,VALID,92.059,VALID,0,VALID,23.0751,VALID,103,VALID,0.638672,
2010-12-29, 00:31:04,VALID,998.633,VALID,0,VALID,92.1277,VALID,0,VALID,23.0946,VALID,103,VALID,0.625781,
2010-12-29, 00:32:04,VALID,998.625,VALID,0,VALID,92.1582,VALID,0,VALID,23.0751,VALID,103,VALID,0.487109,
2010-12-29, 00:33:04,VALID,998.597,VALID,0,VALID,92.1734,VALID,0,VALID,23.0964,VALID,103,VALID,0.592578,
2010-12-29, 00:34:04,VALID,998.58,VALID,0,VALID,92.1658,VALID,0,VALID,23.0751,VALID,103,VALID,0.323438,
2010-12-29, 00:35:04,VALID,998.582,VALID,0,VALID,92.1429,VALID,0,VALID,23.0751,VALID,103,VALID,0.212109,
2010-12-29, 00:36:04,VALID,998.552,VALID,0,VALID,92.12,VALID,0,VALID,23.0556,VALID,103,VALID,0.153906,
2010-12-29, 00:37:04,VALID,998.539,VALID,0,VALID,92.0819,VALID,0,VALID,23.0556,VALID,103,VALID,0.242578,
2010-12-29, 00:38:04,VALID,998.499,VALID,0,VALID,92.1048,VALID,0,VALID,23.0361,VALID,103,VALID,0.236328,
2010-12-29, 00:39:04,VALID,998.479,VALID,0,VALID,92.0819,VALID,0,VALID,23.0166,VALID,103,VALID,0.160156,
2010-12-29, 00:40:04,VALID,998.439,VALID,0,VALID,92.0666,VALID,0,VALID,22.9988,VALID,103,VALID,0.0785156,
2010-12-29, 00:41:04,VALID,998.406,VALID,0,VALID,92.0819,VALID,0,VALID,22.9793,VALID,103,VALID,0,
2010-12-29, 00:42:04,VALID,998.406,VALID,0,VALID,92.0819,VALID,0,VALID,22.9598,VALID,103,VALID,0,
2010-12-29, 00:43:04,VALID,998.403,VALID,0,VALID,92.0971,VALID,0,VALID,22.9598,VALID,103,VALID,0,
2010-12-29, 00:44:04,VALID,998.367,VALID,0,VALID,92.1429,VALID,0,VALID,22.9793,VALID,103,VALID,0,
2010-12-29, 00:45:04,VALID,998.378,VALID,0,VALID,92.1963,VALID,0,VALID,22.9793,VALID,103,VALID,0,
2010-12-29, 00:46:04,VALID,998.37,VALID,0,VALID,92.2574,VALID,0,VALID,22.9988,VALID,103,VALID,0.186328,
2010-12-29, 00:47:04,VALID,998.357,VALID,0,VALID,92.3031,VALID,0,VALID,22.9988,VALID,103,VALID,0.467969,
2010-12-29, 00:48:04,VALID,998.335,VALID,0,VALID,92.3413,VALID,0,VALID,23.0183,VALID,103,VALID,0.585547,
2010-12-29, 00:49:04,VALID,998.306,VALID,0,VALID,92.3413,VALID,0,VALID,23.0183,VALID,101,VALID,0.406641,
2010-12-29, 00:50:04,VALID,998.28,VALID,0,VALID,92.3794,VALID,0,VALID,23.0183,VALID,101,VALID,0.314453,
2010-12-29, 00:51:04,VALID,998.241,VALID,0,VALID,92.4023,VALID,0,VALID,23.0573,VALID,101,VALID,0.486719,
2010-12-29, 00:52:04,VALID,998.169,VALID,0,VALID,92.3642,VALID,0,VALID,23.0573,VALID,101,VALID,0.281641,
2010-12-29, 00:53:04,VALID,998.202,VALID,0,VALID,92.3566,VALID,0,VALID,23.0573,VALID,101,VALID,0.340234,
2010-12-29, 00:54:04,VALID,998.163,VALID,0,VALID,92.3642,VALID,0,VALID,23.0573,VALID,101,VALID,0.182031,
2010-12-29, 00:55:04,VALID,998.157,VALID,0,VALID,92.3337,VALID,0,VALID,23.0396,VALID,101,VALID,0.0464844,
2010-12-29, 00:56:04,VALID,998.11,VALID,0,VALID,92.326,VALID,0,VALID,23.0166,VALID,101,VALID,0.0875,
2010-12-29, 00:57:04,VALID,998.116,VALID,0,VALID,92.326,VALID,0,VALID,22.9971,VALID,101,VALID,0,
2010-12-29, 00:58:04,VALID,998.075,VALID,0,VALID,92.3184,VALID,0,VALID,22.9776,VALID,101,VALID,0,
2010-12-29, 00:59:04,VALID,998.057,VALID,0,VALID,92.326,VALID,0,VALID,22.9988,VALID,101,VALID,0,
2010-12-29, 01:00:04,VALID,998.054,VALID,0,VALID,92.3108,VALID,0.112286,VALID,22.9776,VALID,101,VALID,0.00585938,
2010-12-29, 01:01:04,VALID,998.087,VALID,0,VALID,92.3489,VALID,0.112286,VALID,22.9971,VALID,101,VALID,0,
2010-12-29, 01:02:04,VALID,998.075,VALID,0,VALID,92.3718,VALID,0,VALID,23.0166,VALID,101,VALID,0,
2010-12-29, 01:03:04,VALID,998.076,VALID,0,VALID,92.3337,VALID,0,VALID,23.0166,VALID,101,VALID,0,
2010-12-29, 01:04:04,VALID,998.055,VALID,0,VALID,92.3489,VALID,0,VALID,23.0378,VALID,101,VALID,0.38125,
2010-12-29, 01:05:04,VALID,998.037,VALID,0,VALID,92.326,VALID,0.112286,VALID,23.0183,VALID,101,VALID,0.398828,
2010-12-29, 01:06:04,VALID,998.011,VALID,0,VALID,92.2803,VALID,0.112286,VALID,22.9776,VALID,101,VALID,0.982031,
2010-12-29, 01:07:04,VALID,998.003,VALID,0,VALID,92.2192,VALID,0,VALID,22.9971,VALID,101,VALID,0.851563,
2010-12-29, 01:08:04,VALID,997.984,VALID,0,VALID,92.1734,VALID,0,VALID,23.0166,VALID,101,VALID,0.574219,
2010-12-29, 01:09:04,VALID,997.991,VALID,0,VALID,92.1048,VALID,0,VALID,23.0361,VALID,101,VALID,0.737109,
2010-12-29, 01:10:04,VALID,997.975,VALID,0,VALID,92.0743,VALID,0,VALID,23.1141,VALID,101,VALID,0.571094,
2010-12-29, 01:11:04,VALID,997.995,VALID,0,VALID,92.0132,VALID,0,VALID,23.1159,VALID,101,VALID,0.727344,
2010-12-29, 01:12:04,VALID,997.996,VALID,0,VALID,91.9598,VALID,0,VALID,23.1354,VALID,101,VALID,0.739844,
2010-12-29, 01:13:04,VALID,998.013,VALID,0,VALID,91.8683,VALID,0,VALID,23.1744,VALID,78,VALID,0.739844,
2010-12-29, 01:14:04,VALID,998.021,VALID,0,VALID,91.7691,VALID,0,VALID,23.1549,VALID,78,VALID,0.589453,
2010-12-29, 01:15:04,VALID,998.001,VALID,0,VALID,91.6623,VALID,0,VALID,23.1549,VALID,68,VALID,0.792578,
2010-12-29, 01:16:04,VALID,997.985,VALID,0,VALID,91.5936,VALID,0,VALID,23.1566,VALID,60,VALID,0.778906,
2010-12-29, 01:17:04,VALID,997.947,VALID,0,VALID,91.5326,VALID,0,VALID,23.1159,VALID,51,VALID,0.7375,
2010-12-29, 01:18:04,VALID,997.918,VALID,0,VALID,91.4944,VALID,0,VALID,23.0786,VALID,51,VALID,0.762891,
2010-12-29, 01:19:04,VALID,997.915,VALID,0,VALID,91.502,VALID,0,VALID,23.0591,VALID,45,VALID,0.747266,
2010-12-29, 01:20:04,VALID,997.91,VALID,0,VALID,91.5478,VALID,0,VALID,23.0396,VALID,43,VALID,0.551953,
2010-12-29, 01:21:04,VALID,997.892,VALID,0,VALID,91.647,VALID,0,VALID,22.9988,VALID,43,VALID,0.510156,
2010-12-29, 01:22:04,VALID,997.848,VALID,0,VALID,91.7233,VALID,0,VALID,22.9793,VALID,43,VALID,0.647266,
2010-12-29, 01:23:04,VALID,997.832,VALID,0,VALID,91.8301,VALID,0,VALID,22.9793,VALID,43,VALID,0.681641,
2010-12-29, 01:24:04,VALID,997.767,VALID,0,VALID,91.914,VALID,0,VALID,22.9615,VALID,31,VALID,0.6375,
2010-12-29, 01:25:04,VALID,997.72,VALID,0,VALID,91.9903,VALID,0,VALID,22.9615,VALID,29,VALID,0.716797,
2010-12-29, 01:26:04,VALID,997.692,VALID,0,VALID,92.0514,VALID,0,VALID,22.9403,VALID,29,VALID,0.711328,
2010-12-29, 01:27:04,VALID,997.66,VALID,0,VALID,92.12,VALID,0.112286,VALID,22.9385,VALID,29,VALID,0.605078,
2010-12-29, 01:28:04,VALID,997.659,VALID,0,VALID,92.1734,VALID,0,VALID,22.9403,VALID,29,VALID,0.575391,
2010-12-29, 01:29:04,VALID,997.628,VALID,0,VALID,92.2192,VALID,0,VALID,22.9208,VALID,29,VALID,0.571875,
2010-12-29, 01:30:04,VALID,997.633,VALID,0,VALID,92.2574,VALID,0.112286,VALID,22.8995,VALID,29,VALID,0.590625,
2010-12-29, 01:31:04,VALID,997.611,VALID,0,VALID,92.2955,VALID,0,VALID,22.8818,VALID,29,VALID,0.595703,
2010-12-29, 01:32:04,VALID,997.595,VALID,0,VALID,92.326,VALID,0,VALID,22.8818,VALID,29,VALID,0.540234,
2010-12-29, 01:33:04,VALID,997.576,VALID,0,VALID,92.3642,VALID,0,VALID,22.8605,VALID,29,VALID,0.444531,
2010-12-29, 01:34:04,VALID,997.556,VALID,0,VALID,92.3871,VALID,0,VALID,22.8623,VALID,29,VALID,0.194531,
2010-12-29, 01:35:04,VALID,997.551,VALID,0,VALID,92.4023,VALID,0.112286,VALID,22.841,VALID,29,VALID,0.295703,
2010-12-29, 01:36:04,VALID,997.545,VALID,0,VALID,92.4481,VALID,0,VALID,22.8215,VALID,29,VALID,0.280859,
2010-12-29, 01:37:04,VALID,997.569,VALID,0,VALID,92.4786,VALID,0.112286,VALID,22.8215,VALID,29,VALID,0.30625,
2010-12-29, 01:38:04,VALID,997.585,VALID,0,VALID,92.4863,VALID,0,VALID,22.8215,VALID,29,VALID,0.224219,
2010-12-29, 01:39:04,VALID,997.595,VALID,0,VALID,92.5397,VALID,0.112286,VALID,22.8215,VALID,29,VALID,0.269531,
2010-12-29, 01:40:04,VALID,997.586,VALID,0,VALID,92.5549,VALID,0.112286,VALID,22.8215,VALID,29,VALID,0.403906,
2010-12-29, 01:41:04,VALID,997.596,VALID,0,VALID,92.5702,VALID,0,VALID,22.8215,VALID,29,VALID,0.434375,
2010-12-29, 01:42:04,VALID,997.6,VALID,0,VALID,92.5854,VALID,0,VALID,22.841,VALID,115,VALID,0.592969,
2010-12-29, 01:43:04,VALID,997.611,VALID,0,VALID,92.6312,VALID,0,VALID,22.88,VALID,114,VALID,0.443359,
2010-12-29, 01:44:04,VALID,997.642,VALID,0,VALID,92.6312,VALID,0.112286,VALID,22.919,VALID,114,VALID,0.385938,
2010-12-29, 01:45:04,VALID,997.629,VALID,0,VALID,92.6541,VALID,0,VALID,22.9385,VALID,114,VALID,0.544531,
2010-12-29, 01:46:04,VALID,997.654,VALID,0,VALID,92.6465,VALID,0.112286,VALID,22.919,VALID,124,VALID,0.445703,
2010-12-29, 01:47:04,VALID,997.646,VALID,0,VALID,92.6388,VALID,0.112286,VALID,22.919,VALID,124,VALID,0.556641,
2010-12-29, 01:48:04,VALID,997.672,VALID,0,VALID,92.6236,VALID,0.112286,VALID,22.919,VALID,124,VALID,0.509766,
2010-12-29, 01:49:04,VALID,997.682,VALID,0,VALID,92.5854,VALID,0.112286,VALID,22.919,VALID,124,VALID,0.465234,
2010-12-29, 01:50:04,VALID,997.637,VALID,0,VALID,92.5931,VALID,0.112286,VALID,22.9385,VALID,91,VALID,0.610156,
2010-12-29, 01:51:04,VALID,997.639,VALID,0,VALID,92.5702,VALID,0.112286,VALID,22.9581,VALID,108,VALID,0.604688,
2010-12-29, 01:52:04,VALID,997.615,VALID,0,VALID,92.532,VALID,0.112286,VALID,22.9776,VALID,108,VALID,0.539844,
2010-12-29, 01:53:04,VALID,997.639,VALID,0,VALID,92.5168,VALID,0,VALID,23.0166,VALID,108,VALID,0.30625,
2010-12-29, 01:54:04,VALID,997.596,VALID,0,VALID,92.4634,VALID,0,VALID,23.0378,VALID,108,VALID,0.270703,
2010-12-29, 01:55:04,VALID,997.579,VALID,0,VALID,92.4252,VALID,0.112286,VALID,23.0166,VALID,108,VALID,0.394531,
2010-12-29, 01:56:04,VALID,997.587,VALID,0,VALID,92.3871,VALID,0,VALID,23.0378,VALID,108,VALID,0.261328,
2010-12-29, 01:57:04,VALID,997.592,VALID,0,VALID,92.3337,VALID,0,VALID,23.0378,VALID,108,VALID,0.456641,
2010-12-29, 01:58:04,VALID,997.567,VALID,0,VALID,92.2879,VALID,0,VALID,23.0769,VALID,108,VALID,0.405469,
2010-12-29, 01:59:04,VALID,997.586,VALID,0,VALID,92.2421,VALID,0,VALID,23.0769,VALID,108,VALID,0.574219,
2010-12-29, 02:00:04,VALID,997.536,VALID,0,VALID,92.1734,VALID,0,VALID,23.0964,VALID,108,VALID,0.536719,
2010-12-29, 02:01:04,VALID,997.571,VALID,0,VALID,92.0819,VALID,0,VALID,23.1159,VALID,108,VALID,0.530469,
2010-12-29, 02:02:04,VALID,997.579,VALID,0,VALID,91.9903,VALID,0,VALID,23.1354,VALID,108,VALID,0.640234,
2010-12-29, 02:03:04,VALID,997.568,VALID,0,VALID,91.8988,VALID,0,VALID,23.1354,VALID,91,VALID,0.748438,
2010-12-29, 02:04:04,VALID,997.553,VALID,0,VALID,91.7767,VALID,0,VALID,23.1566,VALID,91,VALID,0.725391,
2010-12-29, 02:05:04,VALID,997.568,VALID,0,VALID,91.6546,VALID,0,VALID,23.1141,VALID,91,VALID,0.675391,
2010-12-29, 02:06:04,VALID,997.546,VALID,0,VALID,91.5478,VALID,0,VALID,23.1336,VALID,91,VALID,0.614844,
2010-12-29, 02:07:04,VALID,997.493,VALID,0,VALID,91.4715,VALID,0,VALID,23.1549,VALID,91,VALID,0.578125,
2010-12-29, 02:08:04,VALID,997.495,VALID,0,VALID,91.3571,VALID,0,VALID,23.1939,VALID,91,VALID,0.332812,
2010-12-29, 02:09:04,VALID,997.482,VALID,0,VALID,91.2655,VALID,0,VALID,23.1744,VALID,91,VALID,0.314063,
2010-12-29, 02:10:04,VALID,997.445,VALID,0,VALID,91.1587,VALID,0,VALID,23.1744,VALID,91,VALID,0.246094,
2010-12-29, 02:11:04,VALID,997.481,VALID,0,VALID,91.09,VALID,0,VALID,23.1744,VALID,91,VALID,0.00898437,
2010-12-29, 02:12:04,VALID,997.483,VALID,0,VALID,91.0214,VALID,0,VALID,23.1549,VALID,91,VALID,0,
2010-12-29, 02:13:04,VALID,997.493,VALID,0,VALID,91.0061,VALID,0,VALID,23.1354,VALID,91,VALID,0,
2010-12-29, 02:14:04,VALID,997.522,VALID,0,VALID,90.9832,VALID,0,VALID,23.1159,VALID,91,VALID,0,
2010-12-29, 02:15:04,VALID,997.49,VALID,0,VALID,90.9603,VALID,0,VALID,23.1159,VALID,91,VALID,0,
2010-12-29, 02:16:04,VALID,997.496,VALID,0,VALID,90.9298,VALID,0,VALID,23.0769,VALID,91,VALID,0,
2010-12-29, 02:17:04,VALID,997.525,VALID,0,VALID,90.9298,VALID,0,VALID,23.0573,VALID,91,VALID,0,
2010-12-29, 02:18:04,VALID,997.486,VALID,0,VALID,91.0137,VALID,0,VALID,23.0573,VALID,91,VALID,0.165625,
2010-12-29, 02:19:04,VALID,997.537,VALID,0,VALID,91.0214,VALID,0,VALID,23.0183,VALID,91,VALID,0.293359,
2010-12-29, 02:20:04,VALID,997.534,VALID,0,VALID,91.0519,VALID,0,VALID,22.9793,VALID,91,VALID,0.26875,
2010-12-29, 02:21:04,VALID,997.554,VALID,0,VALID,91.1434,VALID,0,VALID,22.9598,VALID,91,VALID,0.114453,
2010-12-29, 02:22:04,VALID,997.538,VALID,0,VALID,91.2731,VALID,0,VALID,22.9403,VALID,91,VALID,0,
2010-12-29, 02:23:04,VALID,997.549,VALID,0,VALID,91.4105,VALID,0,VALID,22.9403,VALID,91,VALID,0,
2010-12-29, 02:24:04,VALID,997.531,VALID,0,VALID,91.5249,VALID,0,VALID,22.9403,VALID,91,VALID,0,
2010-12-29, 02:25:04,VALID,997.548,VALID,0,VALID,91.6088,VALID,0,VALID,22.9403,VALID,91,VALID,0,
2010-12-29, 02:26:04,VALID,997.512,VALID,0,VALID,91.6851,VALID,0,VALID,22.9208,VALID,91,VALID,0,
2010-12-29, 02:27:04,VALID,997.52,VALID,0,VALID,91.7843,VALID,0,VALID,22.942,VALID,91,VALID,0.230469,
2010-12-29, 02:28:04,VALID,997.465,VALID,0,VALID,91.8835,VALID,0,VALID,22.9403,VALID,91,VALID,0.150781,
2010-12-29, 02:29:04,VALID,997.464,VALID,0,VALID,91.9293,VALID,0,VALID,22.9403,VALID,91,VALID,0.101953,
2010-12-29, 02:30:04,VALID,997.456,VALID,0,VALID,91.998,VALID,0,VALID,22.9208,VALID,91,VALID,0,
2010-12-29, 02:31:04,VALID,997.4,VALID,0,VALID,92.0361,VALID,0,VALID,22.9013,VALID,91,VALID,0,
2010-12-29, 02:32:04,VALID,997.431,VALID,0,VALID,92.0437,VALID,0,VALID,22.8818,VALID,91,VALID,0,
2010-12-29, 02:33:04,VALID,997.4,VALID,0,VALID,92.0514,VALID,0,VALID,22.8623,VALID,91,VALID,0,
2010-12-29, 02:34:04,VALID,997.392,VALID,0,VALID,92.1048,VALID,0,VALID,22.8623,VALID,91,VALID,0,
2010-12-29, 02:35:04,VALID,997.364,VALID,0,VALID,92.1429,VALID,0,VALID,22.8427,VALID,91,VALID,0,
2010-12-29, 02:36:04,VALID,997.368,VALID,0,VALID,92.1811,VALID,0,VALID,22.8623,VALID,91,VALID,0,
2010-12-29, 02:37:04,VALID,997.372,VALID,0,VALID,92.2268,VALID,0,VALID,22.8427,VALID,91,VALID,0.264062,
2010-12-29, 02:38:04,VALID,997.35,VALID,0,VALID,92.265,VALID,0,VALID,22.8232,VALID,91,VALID,0.383203,
2010-12-29, 02:39:04,VALID,997.402,VALID,0,VALID,92.3031,VALID,0,VALID,22.8427,VALID,91,VALID,0.612109,
2010-12-29, 02:40:04,VALID,997.376,VALID,0,VALID,92.3413,VALID,0,VALID,22.8427,VALID,91,VALID,0.653906,
2010-12-29, 02:41:04,VALID,997.379,VALID,0,VALID,92.3947,VALID,0.112286,VALID,22.88,VALID,91,VALID,0.600391,
2010-12-29, 02:42:04,VALID,997.414,VALID,0,VALID,92.4252,VALID,0,VALID,22.8995,VALID,91,VALID,0.520312,
2010-12-29, 02:43:04,VALID,997.432,VALID,0,VALID,92.4252,VALID,0.112286,VALID,22.9385,VALID,91,VALID,0.448047,
2010-12-29, 02:44:04,VALID,997.424,VALID,0,VALID,92.4176,VALID,0.112286,VALID,22.9581,VALID,91,VALID,0.242188,
2010-12-29, 02:45:04,VALID,997.427,VALID,0,VALID,92.3718,VALID,0,VALID,22.919,VALID,91,VALID,0.306641,
2010-12-29, 02:46:04,VALID,997.448,VALID,0,VALID,92.2803,VALID,0.112286,VALID,22.841,VALID,91,VALID,0.279297,
2010-12-29, 02:47:04,VALID,997.463,VALID,0,VALID,92.1963,VALID,0.112286,VALID,22.802,VALID,91,VALID,0.435937,
2010-12-29, 02:48:04,VALID,997.492,VALID,0,VALID,92.1582,VALID,0.112286,VALID,22.802,VALID,91,VALID,0.563281,
2010-12-29, 02:49:04,VALID,997.506,VALID,0,VALID,92.204,VALID,0.112286,VALID,22.8215,VALID,19,VALID,0.680078,
2010-12-29, 02:50:04,VALID,997.513,VALID,0,VALID,92.1963,VALID,0.112286,VALID,22.7825,VALID,19,VALID,0.576953,
2010-12-29, 02:51:04,VALID,997.484,VALID,0,VALID,92.2497,VALID,0,VALID,22.763,VALID,19,VALID,0.538281,
2010-12-29, 02:52:04,VALID,997.51,VALID,0,VALID,92.2726,VALID,0.112286,VALID,22.7435,VALID,19,VALID,0.611328,
2010-12-29, 02:53:04,VALID,997.484,VALID,0,VALID,92.3108,VALID,0,VALID,22.6832,VALID,19,VALID,0.64375,
2010-12-29, 02:54:04,VALID,997.492,VALID,0,VALID,92.3718,VALID,0.112286,VALID,22.724,VALID,19,VALID,0.702734,
2010-12-29, 02:55:04,VALID,997.517,VALID,0,VALID,92.4176,VALID,0.112286,VALID,22.7045,VALID,19,VALID,0.708203,
2010-12-29, 02:56:04,VALID,997.516,VALID,0,VALID,92.4481,VALID,0,VALID,22.6884,VALID,19,VALID,0.674609,
2010-12-29, 02:57:04,VALID,997.524,VALID,0,VALID,92.4939,VALID,0,VALID,22.6477,VALID,19,VALID,0.6125,
2010-12-29, 02:58:04,VALID,997.535,VALID,0,VALID,92.532,VALID,0,VALID,22.6867,VALID,19,VALID,0.735937,
2010-12-29, 02:59:04,VALID,997.547,VALID,0,VALID,92.5931,VALID,0,VALID,22.6867,VALID,19,VALID,0.766797,
2010-12-29, 03:00:04,VALID,997.598,VALID,0,VALID,92.6083,VALID,0,VALID,22.6477,VALID,19,VALID,1.06758,
2010-12-29, 03:01:04,VALID,997.619,VALID,0,VALID,92.6465,VALID,0,VALID,22.6477,VALID,20,VALID,1.14492,
2010-12-29, 03:02:04,VALID,997.605,VALID,0,VALID,92.677,VALID,0,VALID,22.6689,VALID,38,VALID,1.06797,
2010-12-29, 03:03:04,VALID,997.653,VALID,0,VALID,92.7151,VALID,0,VALID,22.6672,VALID,47,VALID,1.15,
2010-12-29, 03:04:04,VALID,997.668,VALID,0,VALID,92.7304,VALID,0,VALID,22.6867,VALID,55,VALID,1.0918,
2010-12-29, 03:05:04,VALID,997.668,VALID,0,VALID,92.7457,VALID,0,VALID,22.7062,VALID,57,VALID,1.04688,
2010-12-29, 03:06:04,VALID,997.667,VALID,0,VALID,92.7685,VALID,0,VALID,22.7257,VALID,59,VALID,1.06875,
2010-12-29, 03:07:04,VALID,997.69,VALID,0,VALID,92.7838,VALID,0,VALID,22.7469,VALID,66,VALID,1,
2010-12-29, 03:08:04,VALID,997.709,VALID,0,VALID,92.7991,VALID,0,VALID,22.7452,VALID,79,VALID,1.0375,
2010-12-29, 03:09:04,VALID,997.705,VALID,0,VALID,92.8067,VALID,0,VALID,22.7647,VALID,91,VALID,1.21523,
2010-12-29, 03:10:04,VALID,997.698,VALID,0,VALID,92.822,VALID,0,VALID,22.7664,VALID,94,VALID,1.03086,
2010-12-29, 03:11:04,VALID,997.713,VALID,0,VALID,92.822,VALID,0,VALID,22.786,VALID,94,VALID,1.08945,
2010-12-29, 03:12:04,VALID,997.707,VALID,0,VALID,92.8525,VALID,0,VALID,22.8037,VALID,98,VALID,0.908203,
2010-12-29, 03:13:04,VALID,997.688,VALID,0,VALID,92.8525,VALID,0,VALID,22.8037,VALID,112,VALID,0.899609,
2010-12-29, 03:14:04,VALID,997.696,VALID,0,VALID,92.822,VALID,0,VALID,22.8232,VALID,112,VALID,0.803125,
2010-12-29, 03:15:04,VALID,997.676,VALID,0,VALID,92.8448,VALID,0,VALID,22.8232,VALID,112,VALID,0.364844,
2010-12-29, 03:16:04,VALID,997.73,VALID,0,VALID,92.8601,VALID,0,VALID,22.8427,VALID,112,VALID,0.160547,
2010-12-29, 03:17:04,VALID,997.709,VALID,0,VALID,92.8296,VALID,0,VALID,22.8232,VALID,112,VALID,0.564844,
2010-12-29, 03:18:04,VALID,997.737,VALID,0,VALID,92.8601,VALID,0,VALID,22.864,VALID,112,VALID,0.348437,
2010-12-29, 03:19:04,VALID,997.763,VALID,0,VALID,92.8296,VALID,0,VALID,22.8427,VALID,112,VALID,0.347656,
2010-12-29, 03:20:04,VALID,997.72,VALID,0,VALID,92.822,VALID,0,VALID,22.8037,VALID,112,VALID,0.240234,
2010-12-29, 03:21:04,VALID,997.762,VALID,0,VALID,92.822,VALID,0,VALID,22.8232,VALID,112,VALID,0.301953,
2010-12-29, 03:22:04,VALID,997.733,VALID,0,VALID,92.822,VALID,0,VALID,22.8623,VALID,133,VALID,0.396094,
2010-12-29, 03:23:04,VALID,997.742,VALID,0,VALID,92.8143,VALID,0,VALID,22.9013,VALID,133,VALID,0.517578,
2010-12-29, 03:24:04,VALID,997.748,VALID,0,VALID,92.8296,VALID,0,VALID,22.9208,VALID,133,VALID,0.457031,
2010-12-29, 03:25:04,VALID,997.763,VALID,0,VALID,92.8296,VALID,0,VALID,22.9598,VALID,133,VALID,0.228906,
2010-12-29, 03:26:04,VALID,997.756,VALID,0,VALID,92.822,VALID,0,VALID,22.9988,VALID,133,VALID,0.114844,
2010-12-29, 03:27:04,VALID,997.753,VALID,0,VALID,92.822,VALID,0,VALID,22.9776,VALID,133,VALID,0,
2010-12-29, 03:28:04,VALID,997.759,VALID,0,VALID,92.8067,VALID,0,VALID,22.9776,VALID,133,VALID,0,
2010-12-29, 03:29:04,VALID,997.798,VALID,0,VALID,92.7838,VALID,0,VALID,22.9776,VALID,133,VALID,0,
2010-12-29, 03:30:04,VALID,997.804,VALID,0,VALID,92.7685,VALID,0,VALID,22.9793,VALID,39,VALID,0.664453,
2010-12-29, 03:31:04,VALID,997.829,VALID,0,VALID,92.7304,VALID,0.112286,VALID,22.8995,VALID,345,VALID,0.661719,
2010-12-29, 03:32:04,VALID,997.822,VALID,0,VALID,92.7304,VALID,0,VALID,22.8818,VALID,345,VALID,0.595703,
2010-12-29, 03:33:04,VALID,997.866,VALID,0,VALID,92.6846,VALID,0,VALID,22.8623,VALID,345,VALID,0.667578,
2010-12-29, 03:34:04,VALID,997.885,VALID,0,VALID,92.6541,VALID,0,VALID,22.8623,VALID,345,VALID,0.465625,
2010-12-29, 03:35:04,VALID,997.865,VALID,0,VALID,92.6541,VALID,0,VALID,22.8232,VALID,345,VALID,0.523438,
2010-12-29, 03:36:04,VALID,997.879,VALID,0,VALID,92.6465,VALID,0,VALID,22.8427,VALID,345,VALID,0.740234,
2010-12-29, 03:37:04,VALID,997.889,VALID,0,VALID,92.6541,VALID,0,VALID,22.8427,VALID,300,VALID,0.864453,
2010-12-29, 03:38:04,VALID,997.91,VALID,0,VALID,92.677,VALID,0,VALID,22.8623,VALID,300,VALID,0.849219,
2010-12-29, 03:39:04,VALID,997.877,VALID,0,VALID,92.677,VALID,0,VALID,22.88,VALID,278,VALID,0.564844,
2010-12-29, 03:40:04,VALID,997.851,VALID,0,VALID,92.6846,VALID,0,VALID,22.8995,VALID,278,VALID,0.203125,
2010-12-29, 03:41:04,VALID,997.856,VALID,0,VALID,92.6846,VALID,0,VALID,22.9225,VALID,278,VALID,0.264844,
2010-12-29, 03:42:04,VALID,997.85,VALID,0,VALID,92.6999,VALID,0,VALID,22.942,VALID,265,VALID,0.661328,
2010-12-29, 03:43:04,VALID,997.845,VALID,0,VALID,92.7228,VALID,0,VALID,22.9615,VALID,244,VALID,0.844141,
2010-12-29, 03:44:04,VALID,997.828,VALID,0,VALID,92.7151,VALID,0,VALID,22.9403,VALID,231,VALID,0.848437,
2010-12-29, 03:45:04,VALID,997.85,VALID,0,VALID,92.7304,VALID,0,VALID,22.9598,VALID,221,VALID,0.582031,
2010-12-29, 03:46:04,VALID,997.806,VALID,0,VALID,92.7228,VALID,0,VALID,22.9598,VALID,221,VALID,0.319141,